• In Belarus
  • List of Countries
  • For 7 days
  • Water Temperature
  • Weather Map
  • Weather Widgets
  • user-avatar
    Login

    Hourly Weather Vanadzor

    Today, 18 September, Wednesday

    Time Temperature Precipitation Wind Pressure Humidity
    00:00 +13°C° 0 mm 2 mps 635 mmHg 75%
    01:00 +13°C° 0 mm 2 mps 635 mmHg 74%
    02:00 +12°C° 0 mm 2 mps 635 mmHg 74%
    03:00 +12°C° 0 mm 2 mps 635 mmHg 73%
    04:00 +12°C° 0 mm 2 mps 636 mmHg 73%
    05:00 +12°C° 0 mm 2 mps 636 mmHg 73%
    06:00 +12°C° 0 mm 2 mps 636 mmHg 74%
    07:00 +14°C° 0 mm 2 mps 637 mmHg 66%
    08:00 +16°C° 0 mm 2 mps 638 mmHg 58%
    09:00 +19°C° 0 mm 2 mps 639 mmHg 51%
    10:00 +20°C° 0 mm 2 mps 639 mmHg 46%
    11:00 +21°C° 0 mm 2 mps 640 mmHg 41%
    12:00 +23°C° 0 mm 2 mps 640 mmHg 36%
    13:00 +24°C° 0 mm 2 mps 640 mmHg 35%
    14:00 +24°C° 0 mm 2 mps 640 mmHg 35%
    15:00 +24°C° 0 mm 1 mps 640 mmHg 35%
    16:00 +22°C° 0 mm 1 mps 639 mmHg 44%
    17:00 +20°C° 0 mm 1 mps 638 mmHg 54%
    18:00 +18°C° 0 mm 1 mps 637 mmHg 63%
    19:00 +15°C° 0 mm 0 mps 637 mmHg 65%
    20:00 +14°C° 0 mm 0 mps 637 mmHg 68%
    21:00 +13°C° 0 mm 0 mps 637 mmHg 70%
    22:00 +13°C° 0 mm 0 mps 637 mmHg 69%
    23:00 +14°C° 0 mm 1 mps 637 mmHg 67%

    Tomorrow, 19 September, Thursday

    Time Temperature Precipitation Wind Pressure Humidity
    00:00 +14°C° 0 mm 1 mps 637 mmHg 66%
    01:00 +13°C° 0 mm 1 mps 637 mmHg 64%
    02:00 +13°C° 0 mm 1 mps 637 mmHg 62%
    03:00 +13°C° 0 mm 1 mps 637 mmHg 60%
    04:00 +13°C° 0 mm 1 mps 637 mmHg 59%
    05:00 +13°C° 0 mm 1 mps 637 mmHg 58%
    06:00 +13°C° 0 mm 1 mps 637 mmHg 58%
    07:00 +16°C° 0 mm 1 mps 637 mmHg 53%
    08:00 +19°C° 0 mm 1 mps 638 mmHg 48%
    09:00 +22°C° 0 mm 1 mps 639 mmHg 42%
    10:00 +23°C° 0 mm 1 mps 639 mmHg 39%
    11:00 +24°C° 0 mm 1 mps 639 mmHg 36%
    12:00 +26°C° 0 mm 1 mps 640 mmHg 32%
    13:00 +26°C° 0 mm 2 mps 639 mmHg 32%
    14:00 +26°C° 0 mm 2 mps 639 mmHg 32%
    15:00 +26°C° 0 mm 2 mps 639 mmHg 32%
    16:00 +23°C° 0 mm 2 mps 638 mmHg 43%
    17:00 +21°C° 0 mm 1 mps 637 mmHg 53%
    18:00 +18°C° 0 mm 1 mps 637 mmHg 63%
    19:00 +16°C° 0 mm 1 mps 636 mmHg 66%
    20:00 +15°C° 0 mm 1 mps 636 mmHg 69%
    21:00 +14°C° 0 mm 1 mps 636 mmHg 72%
    22:00 +14°C° 0 mm 1 mps 636 mmHg 71%
    23:00 +14°C° 0 mm 1 mps 636 mmHg 71%

    Day after tomorrow, 20 September, Friday

    Time Temperature Precipitation Wind Pressure Humidity
    00:00 +13°C° 0 mm 1 mps 636 mmHg 70%
    01:00 +13°C° 0 mm 1 mps 636 mmHg 70%
    02:00 +13°C° 0 mm 1 mps 636 mmHg 70%
    03:00 +12°C° 0 mm 1 mps 635 mmHg 70%
    04:00 +12°C° 0 mm 1 mps 635 mmHg 71%
    05:00 +11°C° 0 mm 1 mps 635 mmHg 71%
    06:00 +11°C° 0 mm 1 mps 634 mmHg 72%
    07:00 +13°C° 0 mm 1 mps 635 mmHg 66%
    08:00 +16°C° 0 mm 1 mps 636 mmHg 60%
    09:00 +19°C° 0 mm 1 mps 637 mmHg 54%
    10:00 +20°C° 0 mm 1 mps 637 mmHg 50%
    11:00 +21°C° 0 mm 2 mps 637 mmHg 47%
    12:00 +23°C° 0 mm 2 mps 636 mmHg 43%
    13:00 +23°C° 0 mm 2 mps 636 mmHg 43%
    14:00 +22°C° 0 mm 3 mps 635 mmHg 44%
    15:00 +24°C° 0 mm 3 mps 635 mmHg 44%
    16:00 +20°C° 0 mm 2 mps 634 mmHg 55%
    17:00 +18°C° 0 mm 2 mps 633 mmHg 65%
    18:00 +16°C° 0 mm 1 mps 633 mmHg 76%
    19:00 +15°C° 0 mm 1 mps 633 mmHg 81%
    20:00 +15°C° 0 mm 2 mps 633 mmHg 86%
    21:00 +14°C° 0 mm 2 mps 633 mmHg 90%
    22:00 +14°C° 0 mm 2 mps 633 mmHg 91%
    23:00 +13°C° 0 mm 1 mps 633 mmHg 92%

    21 September, Saturday

    Time Temperature Precipitation Wind Pressure Humidity
    00:00 +13°C° 0 mm 1 mps 632 mmHg 93%
    01:00 +13°C° 0 mm 1 mps 632 mmHg 92%
    02:00 +13°C° 0 mm 1 mps 632 mmHg 92%
    03:00 +13°C° 0 mm 1 mps 632 mmHg 92%
    04:00 +12°C° 0 mm 1 mps 632 mmHg 91%
    05:00 +11°C° 0 mm 0 mps 632 mmHg 91%
    06:00 +11°C° 0 mm 0 mps 632 mmHg 90%
    07:00 +14°C° 0 mm 1 mps 632 mmHg 82%
    08:00 +15°C° 0 mm 1 mps 633 mmHg 74%
    09:00 +18°C° 0 mm 1 mps 633 mmHg 66%
    10:00 +18°C° 0 mm 2 mps 633 mmHg 62%
    11:00 +19°C° 0 mm 2 mps 633 mmHg 57%
    12:00 +20°C° 0 mm 3 mps 633 mmHg 53%
    13:00 +19°C° 0.2 mm 3 mps 633 mmHg 55%
    14:00 +19°C° 0.2 mm 3 mps 632 mmHg 57%
    15:00 +19°C° 0.2 mm 3 mps 632 mmHg 58%
    16:00 +17°C° 0.1 mm 3 mps 632 mmHg 67%
    17:00 +15°C° 0.1 mm 2 mps 632 mmHg 75%
    18:00 +13°C° 0.1 mm 2 mps 631 mmHg 83%
    19:00 +12°C° 0 mm 2 mps 632 mmHg 85%
    20:00 +10°C° 0 mm 2 mps 632 mmHg 86%
    21:00 +9°C° 0 mm 2 mps 633 mmHg 87%
    22:00 +9°C° 0 mm 2 mps 633 mmHg 86%
    23:00 +8°C° 0 mm 2 mps 633 mmHg 85%

    22 September, Sunday

    Time Temperature Precipitation Wind Pressure Humidity
    00:00 +7°C° 0 mm 2 mps 633 mmHg 84%
    01:00 +6°C° 0 mm 2 mps 633 mmHg 82%
    02:00 +6°C° 0 mm 2 mps 634 mmHg 80%
    03:00 +5°C° 0 mm 2 mps 634 mmHg 78%
    04:00 +4°C° 0 mm 2 mps 634 mmHg 77%
    05:00 +4°C° 0 mm 2 mps 635 mmHg 75%
    06:00 +3°C° 0 mm 2 mps 635 mmHg 74%
    07:00 +5°C° 0 mm 2 mps 636 mmHg 65%
    08:00 +7°C° 0 mm 2 mps 637 mmHg 55%
    09:00 +9°C° 0 mm 2 mps 638 mmHg 46%
    10:00 +10°C° 0 mm 2 mps 638 mmHg 42%
    11:00 +12°C° 0 mm 2 mps 639 mmHg 38%
    12:00 +13°C° 0 mm 2 mps 639 mmHg 35%
    13:00 +14°C° 0 mm 2 mps 639 mmHg 35%
    14:00 +14°C° 0 mm 2 mps 639 mmHg 35%
    15:00 +14°C° 0 mm 2 mps 639 mmHg 35%
    16:00 +13°C° 0 mm 2 mps 638 mmHg 43%
    17:00 +10°C° 0 mm 2 mps 638 mmHg 52%
    18:00 +8°C° 0 mm 2 mps 637 mmHg 60%
    19:00 +6°C° 0 mm 2 mps 638 mmHg 63%
    20:00 +5°C° 0 mm 2 mps 638 mmHg 67%
    21:00 +5°C° 0 mm 1 mps 638 mmHg 70%
    22:00 +5°C° 0 mm 1 mps 638 mmHg 70%
    23:00 +4°C° 0 mm 1 mps 638 mmHg 70%

    23 September, Monday

    Time Temperature Precipitation Wind Pressure Humidity
    00:00 +4°C° 0 mm 1 mps 638 mmHg 70%
    01:00 +4°C° 0 mm 1 mps 638 mmHg 71%
    02:00 +4°C° 0 mm 1 mps 637 mmHg 71%
    03:00 +3°C° 0 mm 1 mps 637 mmHg 72%
    04:00 +3°C° 0 mm 1 mps 637 mmHg 73%
    05:00 +3°C° 0 mm 1 mps 637 mmHg 74%
    06:00 +3°C° 0 mm 1 mps 637 mmHg 76%
    07:00 +5°C° 0 mm 1 mps 638 mmHg 68%
    08:00 +8°C° 0 mm 1 mps 638 mmHg 60%
    09:00 +11°C° 0 mm 1 mps 639 mmHg 52%
    10:00 +12°C° 0 mm 2 mps 639 mmHg 50%
    11:00 +14°C° 0 mm 2 mps 639 mmHg 48%
    12:00 +16°C° 0 mm 2 mps 639 mmHg 46%
    13:00 +16°C° 0 mm 2 mps 639 mmHg 47%
    14:00 +16°C° 0 mm 2 mps 638 mmHg 48%
    15:00 +16°C° 0 mm 2 mps 637 mmHg 49%
    16:00 +14°C° 0 mm 2 mps 637 mmHg 59%
    17:00 +12°C° 0 mm 2 mps 636 mmHg 69%
    18:00 +10°C° 0 mm 1 mps 635 mmHg 79%
    19:00 +9°C° 0 mm 1 mps 635 mmHg 82%
    20:00 +8°C° 0 mm 1 mps 635 mmHg 84%
    21:00 +7°C° 0 mm 1 mps 635 mmHg 87%
    22:00 +7°C° 0 mm 1 mps 635 mmHg 86%
    23:00 +7°C° 0 mm 1 mps 634 mmHg 85%
    Show more